Regional Weather Roundup
Issued by NWS

Home | Current Version | Previous Version | Graphics & Text | Print | Product List | Glossary On
Versions: 1 2 3 4 5 6 7 8 9 10 11 12 13 14 15 16 17 18 19 20 21 22 23 24 25 26 27 28 29 30 31 32 33 34 35 36 37 38 39 40 41 42 43 44 45 46 47 48 49 50
000
ASUS43 KMPX 220201
RWRMN
WEATHER ROUNDUP FOR MINNESOTA
NATIONAL WEATHER SERVICE TWIN CITIES/CHANHASSEN MN
900 PM CDT THU AUG 21 2014


NOTE: "FAIR" INDICATES FEW OR NO CLOUDS BELOW 12,000 FEET WITH NO
SIGNIFICANT WEATHER AND/OR OBSTRUCTIONS TO VISIBILITY. N/A MEANS
CURRENT SKY AND/OR WEATHER CONDITIONS ARE NOT AVAILABLE.

MNZ060>063-068>070-220300-
   Twin Cities Metro

CITY           SKY/WX    TMP DP  RH WIND       PRES   REMARKS
TWIN CITIES    PTCLDY    81  74  79 NE3       29.82R
ST PAUL        PTCLDY    78  75  90 CALM      29.81R
CRYSTAL        MOCLDY    76  71  85 N6        29.82R
BLAINE         PTCLDY    75  73  94 N5        29.83R
LAKEVILLE      MOCLDY    75  73  94 CALM      29.82R
EDEN PRAIRIE   PTCLDY    79  74  84 N6        29.81R
SOUTH ST PAUL  PTCLDY    80  74  81 CALM      29.81R
LAKE ELMO      CLOUDY    77  73  88 CALM      29.84R
$$
MNZ001>005-007-008-013>017-022>024-027-028-220300-
   Northwest Minnesota

CITY           SKY/WX    TMP DP  RH WIND       PRES   REMARKS
BEMIDJI        CLOUDY    68  65  90 SE6       29.90R
HALLOCK        CLOUDY    70  66  88 NE7       29.86R
ROSEAU         PTCLDY    70  64  83 E6        29.89S
WARROAD        PTCLDY    66  63  88 E7        29.90F
THIEF RVR FALL CLOUDY    72  66  83 SE3       29.88R
CROOKSTON      CLOUDY    73  70  88 SE6       29.87R
FOSSTON        CLOUDY    68  64  88 CALM      29.90R
DETROIT LAKES  MOCLDY    70  68  94 CALM      29.90R
MOORHEAD       CLEAR     73  73 100 CALM      29.87R
PARK RAPIDS    CLOUDY    70  67  90 SE3       29.89R
MAHNOMEN       CLOUDY    70  67  92 S3        29.87R
$$
MNZ006-009>011-018-025>026-220300-
   North Central Minnesota

CITY           SKY/WX    TMP DP  RH WIND       PRES   REMARKS
BAUDETTE       CLOUDY    67  63  87 E7        29.90R
FLAG ISLAND    CLOUDY    66  63  88 CALM      29.90R
INTL FALLS     CLOUDY    65  61  87 SE8       29.92R
WASKISH        CLOUDY    70  66  88 CALM      29.89S
BIG FORK       CLOUDY    68  64  88 CALM      29.92R
LONGVILLE      RAIN      66  64  94 E3        29.90R
GRAND RAPIDS   CLOUDY    66  63  88 CALM      29.91R
CRANE LAKE     CLOUDY    63  61  94 CALM      29.95R
ORR            CLOUDY    64  57  77 CALM      29.91R
COOK           CLOUDY    64  61  88 CALM      29.94R
WALKER         CLOUDY    68  65  92 SE3       29.89R
$$
MNZ012-019>021-037-220300-
   Northeast Minnesota

CITY           SKY/WX    TMP DP  RH WIND       PRES   REMARKS
DULUTH         DRIZZLE   63  60  90 E8        29.91R FOG
ELY            CLOUDY    63  57  82 E5        29.95R
HIBBING        CLOUDY    68  61  78 SE5       29.92R
EVELETH        CLOUDY    64  59  82 E6        29.93R
DULUTH HARBOR  CLOUDY    63  61  94 NE18      29.91R
TWO HARBORS    CLOUDY    63  57  82 NE8       29.90R
SILVER BAY     CLEAR     61  61 100 N6        29.92R
GRAND MARAIS     N/A     64  60  87 NE8       29.95R
G MARAIS ARPRT DRIZZLE  N/A N/A N/A NE6       29.99R
$$
MNZ029>031-032-039>041-046>048-054>057-064-220300-
   West Central Minnesota

CITY           SKY/WX    TMP DP  RH WIND       PRES   REMARKS
FERGUS FALLS   PTCLDY    73  70  88 CALM      29.86R
WHEATON        CLEAR     72  68  88 CALM      29.87R
MORRIS         CLEAR     73  72  94 E3        29.85R
ALEXANDRIA     PTCLDY    71  68  90 CALM      29.88S
ELBOW LAKE     FAIR      72  70  93 E3        29.86R
WADENA         CLOUDY    70  66  88 NE5       29.88R
GLENWOOD       PTCLDY    72  70  94 CALM      29.88R
APPLETON       CLEAR     75  70  83 NE3       29.85R
BENSON         CLEAR     72  70  94 CALM      29.85R FOG
ORTONVILLE     CLEAR     73  70  88 CALM      29.86R
MADISON        CLEAR     77  72  83 CALM      29.86R
WILLMAR        FAIR      75  72  88 CALM      29.87R
$$
MNZ033>034-036-042>043-049>051-058-059-220300-
   Central Minnesota

CITY           SKY/WX    TMP DP  RH WIND       PRES   REMARKS
ST CLOUD       CLOUDY    76  71  85 NE3       29.85R
SAUK CENTRE    CLOUDY    72  70  94 CALM      29.87R
PAYNESVILLE    CLEAR     70  69  97 CALM      29.86R FOG
AITKIN         CLOUDY    68  63  83 NE3       29.89R HAZE
PINE RIVER     CLOUDY    66  66 100 E7        29.93R FOG
BRAINERD       CLOUDY    67  66  97 NE6       29.88R FOG
STAPLES        CLOUDY    68  66  94 CALM      29.88R
LONG PRAIRIE   CLOUDY    70  68  94 CALM      29.88R
LITTLE FALLS   CLOUDY    70  68  94 CALM      29.86S
LITCHFIELD     CLEAR     75  73  94 CALM      29.86R
BUFFALO        CLEAR     73  70  88 CALM      29.85R
MAPLE LAKE     CLEAR     73  71  96 CALM      29.85S
$$
MNZ037-044-045-052-053-220300-
   East Central Minnesota

CITY           SKY/WX    TMP DP  RH WIND       PRES   REMARKS
PRINCETON        N/A     75  72  88 CALM      29.85R
MORA           CLOUDY    70  68  94 CALM      29.87S
CAMBRIDGE      CLEAR     73  64  73 CALM      29.83R
RUSH CITY      CLOUDY    72  69  92 CALM      29.86R
MOOSE LAKE     RAIN      61  59  94 NE6       29.88R
HINCKLEY       CLOUDY    68  68 100 N7        29.87R
CLOQUET        CLOUDY    63  61  94 E8        29.91R
MCGREGOR       CLOUDY    64  63  94 E3        29.90R
$$
MNZ071>073-080-081-089-090-097-098-220300-
   Southwest Minnesota

CITY           SKY/WX    TMP DP  RH WIND       PRES   REMARKS
MONTEVIDEO     PTCLDY    75  70  83 CALM      29.86R
GRANITE FALLS  MOCLDY    76  73  92 NW3       29.87R
CANBY          CLEAR     75  69  82 NW3       29.87R
MARSHALL       PTCLDY    75  68  78 N3        29.86R
REDWOOD FALLS  CLEAR     78  73  84 CALM      29.84R
OLIVIA         PTCLDY    77  73  88 CALM      29.85R
PIPESTONE      CLEAR     75  70  83 N3        29.89R
WINDOM         PTCLDY    73  68  83 SW3       29.87R
WORTHINGTON    MOCLDY    79  19  11 NE7       29.89R
JACKSON        RAIN      72  66  83 SW8       29.87F
TRACY          PTCLDY    76  71  83 NW7       29.88R
SLAYTON        MOCLDY    76  71  83 CALM      29.90R
$$
MNZ065>067-074>077-082>085-091>093-220300-
   South Central Minnesota

CITY           SKY/WX    TMP DP  RH WIND       PRES   REMARKS
MANKATO        CLOUDY    81  72  74 CALM      29.83R
NEW ULM        PTCLDY    79  77  94 CALM      29.84R
ST JAMES       PTCLDY    73  66  78 CALM      29.86R
FAIRMONT       CLOUDY    75  64  69 MISG      29.85R
GLENCOE        CLEAR     77  72  84 N3        29.84R
FARIBAULT      MOCLDY    82  72  69 S5        29.84R
OWATONNA       MOCLDY    79  72  78 S5        29.85R
WASECA         MOCLDY    77  68  73 S5        29.86R
ALBERT LEA     MOCLDY    81  72  74 CALM      29.86R
$$
MNZ078>079-086>088-094>096-220300-
   Southeast Minnesota

CITY           SKY/WX    TMP DP  RH WIND       PRES   REMARKS
ROCHESTER      MOCLDY    76  72  87 S7        29.87R
RED WING       MOCLDY    81  73  78 SE5       29.82R
STANTON        MOCLDY    79  73  82 S3        29.82R
DODGE CENTER   MOCLDY    75  73  94 S6        29.86S
WINONA         MOCLDY    79  72  78 CALM      29.86R
AUSTIN         MOCLDY    77  72  83 S6        29.86R
PRESTON        PTCLDY    74  74 100 S5        29.89R
$$
ABBREVIATIONS USED IN REMARKS
   TC - TEMPERATURES IN CELSIUS
  WCI - WIND CHILL INDEX
   HX - HEAT INDEX
  VSB - VISIBILITY
$$


USA.gov is the U.S. government's official web portal to all federal, state and local government web resources and services.